Regional Weather Roundup
Issued by NWS

Home | Current Version | Previous Version | Graphics & Text | Print | Product List | Glossary Off
Versions: 1 2 3 4 5 6 7 8 9 10 11 12 13 14 15 16 17 18 19 20 21 22 23 24 25 26 27 28 29 30 31 32 33 34 35 36 37 38 39 40 41 42 43 44 45 46 47 48 49 50

000
ASUS43 KTOP 282108
RWRKS

WEATHER ROUNDUP FOR KANSAS
NATIONAL WEATHER SERVICE GOODLAND KS
400 PM CDT SAT MAR 28 2015

NOTE:  "FAIR" INDICATES FEW OR NO CLOUDS BELOW 12,000 FEET WITH NO
SIGNIFICANT WEATHER AND/OR OBSTRUCTIONS TO VISIBILITY.

KSZ001>006-013>018-027>032-041>047-282200-
NORTHWEST KANSAS

CITY           SKY/WX    TMP DP  RH WIND       PRES   REMARKS
GOODLAND       SUNNY     80  24  12 VRB7G21   29.92F
HAYS           SUNNY     72  39  30 SE14G20   29.96F
HILL CITY      SUNNY     74  36  25 S13G20    29.95F
RUSSELL        SUNNY     72  38  29 SE14G20   29.96F
$$

KSZ061>065-074>080-084>089-282200-
SOUTHWEST KANSAS

CITY           SKY/WX    TMP DP  RH WIND       PRES   REMARKS
DODGE CITY     SUNNY     78  34  20 E7        29.96F
ELKHART          N/A     80  30  16 N5          N/A
GARDEN CITY    SUNNY     79  32  18 MISG      29.94F
GREAT BEND     SUNNY     73  39  29 SE14G20   29.96F
LIBERAL        SUNNY     81  36  19 SE3       29.97F
PRATT          SUNNY     72  37  28 SE10G16   29.99F
$$

KSZ066>073-081>083-090>101-282200-
SOUTHEAST KANSAS

CITY           SKY/WX    TMP DP  RH WIND       PRES   REMARKS
CHANUTE        SUNNY     62  40  44 E10G20    30.06F
COFFEYVILLE    SUNNY     67  41  38 SE7       30.04S
HUTCHINSON     SUNNY     71  39  31 SE8G18    29.98F
MEDICINE LODGE   N/A     74  40  29 SE9G18    29.96F
NEWTON         SUNNY     66  37  34 SE12      30.03F
PARSONS        SUNNY     64  42  44 VRB3      30.05F
WICHITA INTL   SUNNY     73  39  29 E12G18    29.98F
WICHITA JABRA  SUNNY     70  38  31 VRB6      29.99F
WICHITA MCCONL SUNNY     71  40  31 E10G18    29.99F
WINFIELD       SUNNY     72  41  32 E8        29.99F
$$

KSZ007>012-019>026-033>040-048>060-102>105-282200-
NORTHEAST KANSAS

CITY           SKY/WX    TMP DP  RH WIND       PRES   REMARKS
CONCORDIA      SUNNY     64  34  32 SE14      30.00F
EMPORIA        SUNNY     61  36  39 E15       30.04F
LAWRENCE       SUNNY     55  31  39 SE16      30.11F
MANHATTAN      SUNNY     62  35  36 SE12      30.04F
MARYSVILLE     SUNNY     57  34  41 SE13      30.04F
OLATHE IND     SUNNY     51  30  44 SE10G18   30.12F
OLATHE EXE     SUNNY     52  31  44 SE13G20   30.11F
SALINA         SUNNY     67  37  33 SE16      30.00F
TOPEKA BILLARD SUNNY     56  32  40 E14G21    30.09F
TOPEKA FORBES  SUNNY     58  34  40 MISG      30.08S
$$



USA.gov is the U.S. government's official web portal to all federal, state and local government web resources and services.